Location: Anne Acres
(38.7004°N, 75.0827°W)
Time: 17:31:12
(UTC+00:00)

Vanguard 1 Rocket - All Passes

Search period start: 13 November 2024 00:00
Search period end: 23 November 2024 00:00
Orbit: 651 x 4217 km, 34.3° (Epoch: 12 November)

Date Brightness Start Highest point End Pass type
(mag) Time Alt. Az. Time Alt. Az. Time Alt. Az.
13 Nov - 12:36:56 10° SSE 12:49:40 16° SE 13:01:37 10° ESE daylight
13 Nov - 14:56:08 10° SSW 15:19:23 43° SSE 15:36:21 10° E daylight
13 Nov - 17:25:51 10° WSW 17:49:47 68° SSE 18:03:09 10° E daylight
13 Nov - 19:59:55 10° W 20:18:37 72° S 20:27:51 10° ESE daylight
13 Nov - 22:33:23 10° W 22:44:20 37° SW 22:50:33 10° SSE visible
14 Nov - 13:43:23 10° SSW 14:04:13 32° SE 14:21:43 10° E daylight
14 Nov - 16:09:48 10° SW 16:34:43 60° SSE 16:50:33 10° E daylight
14 Nov - 18:42:40 10° W 19:04:46 75° S 19:16:07 10° E daylight
14 Nov - 21:16:59 10° W 21:32:10 56° SSW 21:39:54 10° SE daylight
14 Nov - 23:51:03 10° W 23:55:56 15° SW 23:59:41 10° SSW visible
15 Nov - 12:33:02 10° S 12:49:23 22° SE 13:04:50 10° E daylight
15 Nov - 14:55:00 10° SW 15:19:19 50° SSE 15:37:15 10° E daylight
15 Nov - 17:25:35 10° WSW 17:50:08 73° S 18:03:57 10° E daylight
15 Nov - 20:00:00 10° W 20:19:08 69° SSW 20:28:39 10° ESE daylight
15 Nov - 22:33:54 10° W 22:44:33 31° SW 22:50:51 10° SSE visible
16 Nov - 11:29:26 10° SE 11:35:02 11° SE 11:40:39 10° ESE daylight
16 Nov - 13:41:45 10° SSW 14:03:56 39° SE 14:22:55 10° E daylight
16 Nov - 16:09:17 10° SW 16:34:51 66° SSE 16:51:19 10° E daylight
16 Nov - 18:42:39 10° W 19:05:13 76° S 19:16:55 10° E daylight
16 Nov - 21:17:11 10° W 21:32:30 50° SSW 21:40:30 10° SE daylight
16 Nov - 23:53:35 10° WSW 23:55:55 11° SW 23:57:59 10° SW visible
17 Nov - 12:30:25 10° S 12:48:58 27° SE 13:06:51 10° E daylight
17 Nov - 14:54:12 10° SW 15:19:13 56° SSE 15:38:01 10° E daylight
17 Nov - 17:25:27 10° WSW 17:50:28 76° S 18:04:44 10° E daylight
17 Nov - 20:00:05 10° W 20:19:33 65° SSW 20:29:23 10° ESE daylight
17 Nov - 22:34:33 10° W 22:44:38 26° SW 22:50:55 10° S visible
18 Nov - 11:22:27 10° SSE 11:34:34 16° SE 11:47:05 10° E visible
18 Nov - 13:40:33 10° SSW 14:03:36 45° SE 14:23:50 10° E daylight
18 Nov - 16:08:58 10° WSW 16:34:59 71° SSE 16:52:02 10° E daylight
18 Nov - 18:42:40 10° W 19:05:38 75° S 19:17:42 10° ESE daylight
18 Nov - 21:17:24 10° W 21:32:43 44° SW 21:40:56 10° SE daylight
19 Nov - 12:28:35 10° S 12:48:26 33° SE 13:08:14 10° E daylight
19 Nov - 14:53:39 10° SW 15:19:06 62° SSE 15:38:42 10° E daylight
19 Nov - 17:25:24 10° W 17:50:47 77° S 18:05:29 10° E daylight
19 Nov - 20:00:08 10° W 20:19:53 61° SSW 20:30:01 10° SE daylight
19 Nov - 22:35:27 10° W 22:44:33 21° SW 22:50:39 10° S visible
20 Nov - 11:18:57 10° S 11:33:59 21° SE 11:50:07 10° E visible
20 Nov - 13:39:42 10° SW 14:03:15 51° SSE 14:24:33 10° E daylight
20 Nov - 16:08:49 10° WSW 16:35:08 74° S 16:52:43 10° E daylight
20 Nov - 18:42:42 10° W 19:05:59 72° SSW 19:18:25 10° ESE daylight
20 Nov - 21:17:40 10° W 21:32:46 38° SW 21:41:13 10° SSE daylight
21 Nov - 12:27:17 10° SSW 12:47:53 39° SE 13:09:13 10° E daylight
21 Nov - 14:53:20 10° SW 15:19:01 68° SSE 15:39:19 10° E daylight
21 Nov - 17:25:25 10° W 17:51:04 77° S 18:06:12 10° E daylight
21 Nov - 20:00:12 10° W 20:20:03 55° SSW 20:30:32 10° SE daylight
21 Nov - 22:36:48 10° W 22:44:21 17° SW 22:49:51 10° SSW visible
22 Nov - 11:16:42 10° S 11:33:19 27° SE 11:51:58 10° E visible
22 Nov - 13:39:09 10° SW 14:02:55 57° SSE 14:25:08 10° E daylight
22 Nov - 16:08:47 10° WSW 16:35:17 77° S 16:53:22 10° E daylight
22 Nov - 18:42:44 10° W 19:06:14 69° SSW 19:19:03 10° ESE daylight
22 Nov - 21:18:04 10° W 21:32:39 32° SW 21:41:15 10° SSE daylight
